星链-31696 (STARLINK-31696 )

导读 | 星芒AI

STARLINK-31696 是 SpaceX Starlink 卫星互联网项目中的一颗低轨卫星,属于 Starlink 群体部署计划的一部分。该卫星于 2023 年发射,运行在约 550 公里的轨道高度,旨在为全球用户提供高速互联网服务。它采用先进的通信技术,支持宽带接入,并具备自动避撞功能以确保太空安全。作为 Starlink 计划的重要组成部分,该卫星有助于扩大互联网覆盖范围,特别是在偏远和网络基础设施薄弱的地区。

基本信息
目录编号:
59435
目录名称:
STARLINK-31696
国际标识:
2024-065Q
轨道中心:
EARTH
卫星名称:
星链-31696
卫星全名:
星链-31696 (STARLINK-31696 )
卫星状态:
在轨 (已飞行574 天)
发射日期:
2024-04-07 UTC
国别 :
美国 (US)
星等 :
--
轨道信息
数据来源 国际轨道数据
星历时间: 2025-11-01T22:59:50+0800
19小时前
查看轨道信息
半长轴: 6853.383km
偏心率: 0.0000879
轨道倾角: 53.158°
近地点辐角 84.994°
升交点赤经 156.413°
平近点角 275.116°
近地点: 474.645km
远地点: 475.851km
周期: 94.106分钟
每日圈数: 15.301898
详细信息
固有亮度:
5
最大亮度:
1.5
卫星平台:
Starlink v2.0 mini
覆盖范围:
全球
运营商:
太空探索技术公司
运营商所在国:
美国
制造商(研发单位):
太空探索技术公司
制造商所在国:
美国
使用方式:
暂无
卫星简介
星链(Starlink)计划是由太空探索技术公司(SpaceX)提出的一个巨型低轨卫星互联网星座项目,计划在2019年至2024年间在太空搭建由约1.2万颗卫星组成的“星链”网络,其中1584颗将部署在地球上空550千米处的近地轨道,并从2020年开始工作。该卫星仍在工作。
2D轨道图
3D轨道图
轨道高度分析图
轨道倾角分析图
轨道综合分析图
查看轨道综合分析图